Weather in Sokha

Russia / Ryazan Oblast     54°08′48″N   39°49′10″E
temp.,
°C
wind,
m/s
gust,
m/s
humid.,
%
clouds,
%
prec.,
mm/h
press.,
hPa
HPBL,
m
18 august, thu
thu1800:00+21ene374799 0.0 1017142
03:00+21ene51150100 0.0 1017314
06:00+20ene51251100 0.0 1017358
09:00+21ene51152100 0.0 1018475
12:00+22ene5114997 0.0 1017488
15:00+29ene793095 0.0 10161861
18:00+26e71138100 0.0 1017798
21:00+24ene71443100 0.0 1018649
19 august, fri
fri1900:00+21ene6135395 0.0 1019507
03:00+19ene61248100 0.0 1019420
06:00+18e61358100 0.0 1020566
09:00+16e51283100 1.2 1022597
12:00+18e61278100 0.8 1024664
15:00+17e61286100 1.8 1025452
18:00+16ese3890100 0.6 1025244
21:00+16ene41283100 0.6 1024329
20 august, sat
sat2000:00+16ene41075100 0.0 1024224
03:00+16e51182100 0.3 1025311
06:00+15e51376100 0.7 1025376
09:00+18e51367100 1.2 1025517
12:00+25ese8123096 0.0 10251158
15:00+26ese81129100 0.0 10241189
18:00+23ese6113593 0.0 1024558
21:00+19e5133732 0.0 1025271
21 august, sun
sun2100:00+17ese51334100 0.0 1025265
03:00+16ese51239100 0.0 1025233
06:00+16ese5123798 0.0 1025275
09:00+21se61031100 0.0 1025448
12:00+25se6823100 0.0 10251149
15:00+27se672099 0.0 10241778
18:00+24ese3531100 0.0 1023112
21:00+20ese4830100 0.0 1023120
22 august, mon
mon2200:00+19ese373499 0.0 1023121
03:00+17e3544100 0.0 102475
06:00+16ese3757100 0.0 1024139
09:00+23se484661 0.0 1024417
12:00+29se693017 0.0 10232552
15:00+31se68265 0.0 10223002
18:00+29ese363573 0.0 1022139
21:00+25e41136100 0.0 1023256